• en Suisse
  • Liste des pays
  • À 7 jours
  • Température de l'eau
  • Carte satellitaire
  • Carte météo
  • Widgets météo
  • user-avatar
    Se connecter

    Météo par heure à Balho

    Ce jour, 17 Octobre, Mardi

    Heure Température Précipitation Vent Pression Humidité
    00:00 +35°C° 0 mm 3 m/s 735 mmHg 42%
    01:00 +35°C° 0 mm 3 m/s 735 mmHg 43%
    02:00 +34°C° 0 mm 2 m/s 735 mmHg 45%
    03:00 +34°C° 0 mm 2 m/s 735 mmHg 47%
    04:00 +34°C° 0 mm 2 m/s 735 mmHg 48%
    05:00 +32°C° 0 mm 2 m/s 735 mmHg 49%
    06:00 +32°C° 0 mm 2 m/s 735 mmHg 50%
    07:00 +33°C° 0 mm 1 m/s 736 mmHg 47%
    08:00 +33°C° 0 mm 1 m/s 736 mmHg 43%
    09:00 +34°C° 0 mm 1 m/s 737 mmHg 40%
    10:00 +35°C° 0 mm 1 m/s 736 mmHg 35%
    11:00 +37°C° 0 mm 2 m/s 736 mmHg 30%
    12:00 +39°C° 0 mm 2 m/s 736 mmHg 26%
    13:00 +39°C° 0 mm 2 m/s 735 mmHg 24%
    14:00 +40°C° 0 mm 2 m/s 734 mmHg 22%
    15:00 +42°C° 0 mm 3 m/s 734 mmHg 19%
    16:00 +40°C° 0 mm 3 m/s 733 mmHg 22%
    17:00 +41°C° 0 mm 4 m/s 733 mmHg 24%
    18:00 +40°C° 0 mm 4 m/s 733 mmHg 27%
    19:00 +38°C° 0 mm 4 m/s 734 mmHg 33%
    20:00 +37°C° 0 mm 5 m/s 734 mmHg 40%
    21:00 +36°C° 0 mm 5 m/s 734 mmHg 46%
    22:00 +36°C° 0 mm 4 m/s 735 mmHg 48%
    23:00 +35°C° 0 mm 4 m/s 735 mmHg 50%

    Demain, 18 Octobre, Mercredi

    Heure Température Précipitation Vent Pression Humidité
    00:00 +34°C° 0 mm 3 m/s 735 mmHg 52%
    01:00 +34°C° 0 mm 3 m/s 734 mmHg 53%
    02:00 +34°C° 0 mm 3 m/s 734 mmHg 55%
    03:00 +32°C° 0 mm 2 m/s 734 mmHg 56%
    04:00 +32°C° 0,1 mm 2 m/s 734 mmHg 57%
    05:00 +32°C° 0,1 mm 2 m/s 735 mmHg 58%
    06:00 +31°C° 0,1 mm 1 m/s 735 mmHg 59%
    07:00 +32°C° 0 mm 1 m/s 736 mmHg 55%
    08:00 +33°C° 0 mm 1 m/s 736 mmHg 51%
    09:00 +33°C° 0 mm 1 m/s 737 mmHg 48%
    10:00 +35°C° 0 mm 1 m/s 736 mmHg 43%
    11:00 +36°C° 0 mm 1 m/s 736 mmHg 38%
    12:00 +37°C° 0 mm 1 m/s 735 mmHg 33%
    13:00 +39°C° 0 mm 2 m/s 734 mmHg 31%
    14:00 +39°C° 0 mm 2 m/s 734 mmHg 29%
    15:00 +40°C° 0 mm 2 m/s 733 mmHg 28%
    16:00 +39°C° 0,1 mm 3 m/s 733 mmHg 31%
    17:00 +40°C° 0,1 mm 4 m/s 733 mmHg 34%
    18:00 +39°C° 0,1 mm 5 m/s 733 mmHg 37%
    19:00 +37°C° 0,2 mm 5 m/s 734 mmHg 42%
    20:00 +37°C° 0,2 mm 5 m/s 734 mmHg 47%
    21:00 +36°C° 0,2 mm 5 m/s 735 mmHg 52%
    22:00 +35°C° 0,3 mm 4 m/s 735 mmHg 54%
    23:00 +35°C° 0,3 mm 4 m/s 735 mmHg 55%

    Après-demain, 19 Octobre, Jeudi

    Heure Température Précipitation Vent Pression Humidité
    00:00 +34°C° 0,3 mm 3 m/s 735 mmHg 57%
    01:00 +34°C° 0,6 mm 3 m/s 734 mmHg 58%
    02:00 +33°C° 0,6 mm 3 m/s 734 mmHg 60%
    03:00 +32°C° 0,6 mm 2 m/s 734 mmHg 62%
    04:00 +32°C° 0,9 mm 2 m/s 734 mmHg 62%
    05:00 +32°C° 0,9 mm 2 m/s 735 mmHg 63%
    06:00 +31°C° 0,9 mm 1 m/s 735 mmHg 63%
    07:00 +32°C° 0,1 mm 2 m/s 736 mmHg 60%
    08:00 +34°C° 0,1 mm 2 m/s 736 mmHg 56%
    09:00 +34°C° 0,1 mm 2 m/s 737 mmHg 52%
    10:00 +36°C° 0 mm 2 m/s 737 mmHg 47%
    11:00 +36°C° 0 mm 1 m/s 736 mmHg 41%
    12:00 +37°C° 0 mm 1 m/s 736 mmHg 36%
    13:00 +39°C° 0 mm 2 m/s 735 mmHg 33%
    14:00 +39°C° 0 mm 2 m/s 734 mmHg 30%
    15:00 +40°C° 0 mm 2 m/s 734 mmHg 27%
    16:00 +40°C° 0 mm 3 m/s 734 mmHg 29%
    17:00 +40°C° 0 mm 4 m/s 734 mmHg 31%
    18:00 +40°C° 0 mm 4 m/s 734 mmHg 33%
    19:00 +38°C° 0 mm 4 m/s 735 mmHg 35%
    20:00 +37°C° 0 mm 4 m/s 735 mmHg 38%
    21:00 +36°C° 0 mm 4 m/s 736 mmHg 41%
    22:00 +36°C° 0,1 mm 4 m/s 736 mmHg 42%
    23:00 +35°C° 0,1 mm 4 m/s 736 mmHg 43%

    20 Octobre, Vendredi

    Heure Température Précipitation Vent Pression Humidité
    00:00 +35°C° 0,1 mm 4 m/s 736 mmHg 44%
    01:00 +34°C° 0 mm 3 m/s 735 mmHg 44%
    02:00 +34°C° 0 mm 2 m/s 735 mmHg 45%
    03:00 +32°C° 0 mm 2 m/s 735 mmHg 45%
    04:00 +32°C° 0 mm 2 m/s 735 mmHg 47%
    05:00 +32°C° 0 mm 1 m/s 736 mmHg 48%
    06:00 +31°C° 0 mm 1 m/s 736 mmHg 49%
    07:00 +32°C° 0 mm 1 m/s 737 mmHg 46%
    08:00 +33°C° 0 mm 1 m/s 737 mmHg 42%
    09:00 +34°C° 0 mm 1 m/s 738 mmHg 38%
    10:00 +35°C° 0 mm 1 m/s 737 mmHg 34%
    11:00 +36°C° 0 mm 1 m/s 737 mmHg 30%
    12:00 +37°C° 0 mm 1 m/s 736 mmHg 26%
    13:00 +39°C° 0 mm 2 m/s 736 mmHg 25%
    14:00 +40°C° 0 mm 2 m/s 735 mmHg 23%
    15:00 +40°C° 0 mm 2 m/s 734 mmHg 22%
    16:00 +40°C° 0 mm 3 m/s 735 mmHg 22%
    17:00 +40°C° 0 mm 4 m/s 735 mmHg 23%
    18:00 +40°C° 0 mm 4 m/s 735 mmHg 24%
    19:00 +38°C° 0 mm 4 m/s 736 mmHg 26%
    20:00 +38°C° 0 mm 4 m/s 736 mmHg 27%
    21:00 +37°C° 0 mm 4 m/s 736 mmHg 29%
    22:00 +36°C° 0 mm 4 m/s 736 mmHg 31%
    23:00 +35°C° 0 mm 4 m/s 736 mmHg 32%

    21 Octobre, Samedi

    Heure Température Précipitation Vent Pression Humidité
    00:00 +35°C° 0 mm 3 m/s 736 mmHg 34%
    01:00 +34°C° 0 mm 3 m/s 735 mmHg 36%
    02:00 +34°C° 0 mm 2 m/s 735 mmHg 39%
    03:00 +32°C° 0 mm 2 m/s 735 mmHg 41%
    04:00 +32°C° 0 mm 2 m/s 735 mmHg 42%
    05:00 +31°C° 0 mm 2 m/s 736 mmHg 44%
    06:00 +31°C° 0 mm 2 m/s 736 mmHg 46%
    07:00 +32°C° 0 mm 2 m/s 737 mmHg 42%
    08:00 +34°C° 0 mm 2 m/s 737 mmHg 37%
    09:00 +35°C° 0 mm 2 m/s 738 mmHg 33%
    10:00 +36°C° 0 mm 2 m/s 737 mmHg 29%
    11:00 +36°C° 0 mm 1 m/s 736 mmHg 25%
    12:00 +39°C° 0 mm 1 m/s 736 mmHg 22%
    13:00 +39°C° 0 mm 1 m/s 735 mmHg 21%
    14:00 +40°C° 0 mm 1 m/s 735 mmHg 21%
    15:00 +40°C° 0 mm 2 m/s 734 mmHg 20%
    16:00 +40°C° 0 mm 2 m/s 734 mmHg 21%
    17:00 +39°C° 0 mm 3 m/s 735 mmHg 23%
    18:00 +40°C° 0 mm 4 m/s 735 mmHg 24%
    19:00 +38°C° 0 mm 4 m/s 735 mmHg 26%
    20:00 +38°C° 0 mm 4 m/s 735 mmHg 28%
    21:00 +37°C° 0 mm 4 m/s 736 mmHg 30%
    22:00 +36°C° 0 mm 4 m/s 736 mmHg 32%
    23:00 +36°C° 0 mm 3 m/s 735 mmHg 34%

    22 Octobre, Dimanche

    Heure Température Précipitation Vent Pression Humidité
    00:00 +35°C° 0 mm 3 m/s 735 mmHg 35%
    01:00 +35°C° 0 mm 3 m/s 735 mmHg 37%
    02:00 +34°C° 0 mm 2 m/s 735 mmHg 38%
    03:00 +34°C° 0 mm 2 m/s 734 mmHg 40%
    04:00 +32°C° 0 mm 2 m/s 735 mmHg 41%
    05:00 +32°C° 0 mm 2 m/s 735 mmHg 43%
    06:00 +31°C° 0 mm 1 m/s 736 mmHg 44%
    07:00 +32°C° 0 mm 1 m/s 736 mmHg 39%
    08:00 +33°C° 0 mm 1 m/s 737 mmHg 35%
    09:00 +34°C° 0 mm 1 m/s 737 mmHg 30%
    10:00 +36°C° 0 mm 1 m/s 737 mmHg 27%
    11:00 +37°C° 0 mm 1 m/s 736 mmHg 24%
    12:00 +39°C° 0 mm 1 m/s 735 mmHg 21%
    13:00 +39°C° 0 mm 1 m/s 735 mmHg 20%
    14:00 +40°C° 0 mm 1 m/s 734 mmHg 19%
    15:00 +40°C° 0 mm 1 m/s 734 mmHg 19%
    16:00 +40°C° 0 mm 2 m/s 734 mmHg 20%
    17:00 +40°C° 0 mm 3 m/s 734 mmHg 21%
    18:00 +40°C° 0 mm 4 m/s 734 mmHg 22%
    19:00 +40°C° 0 mm 4 m/s 734 mmHg 24%
    20:00 +38°C° 0 mm 4 m/s 735 mmHg 26%
    21:00 +37°C° 0 mm 4 m/s 735 mmHg 28%
    22:00 +37°C° 0 mm 4 m/s 735 mmHg 29%
    23:00 +36°C° 0 mm 4 m/s 735 mmHg 30%
    Voir plus